Flag for Namibia Weather past 2 weeks in Windhoek, Namibia

Now
68 °F

Passing clouds.


Feels Like: 68 °F
Forecast: 63 / 88 °F
Wind: 6 mph from Southeast

Location: Windhoek

Current Time: Jan 30, 2015 at 7:11:45 AM

Latest Report: Jan 30, 2015 at 6:00 AM


Visibility: N/A

Pressure: 30.12 "Hg

Humidity: 64%

Dew point: 55 °F

Location of WindhoekLocation

Historic Weather in Windhoek — Graph

°F

Windhoek temperature yesterday

Maximum temperature yesterday: 84 °F (at 1:00 PM)
Minimum temperature yesterday: 59 °F (at 6:00 AM)
Average temperature yesterday: 70 °F

Past Weeks' High & Low Weather Summary

 TemperatureHumidityPressure
High93 °F (Jan 18, 3:00 PM)94% (Jan 25, 8:00 PM)30.30 "Hg (Jan 25, 8:00 PM)
Low59 °F (Jan 29, 6:00 AM)7% (Jan 18, 3:00 PM)29.98 "Hg (Jan 19, 6:00 PM)
Average74 °F47%30.14 "Hg
* Reported Jan 15 5:00 AM — Jan 30 5:00 AM, Windhoek, Weather by CustomWeather, © 2014

Note: Actual official high and low records may vary slightly from our data, if they occured in-between our weather recording intervals... More about our weather records

Advertising

Windhoek weather history for previous 24 hours

 ConditionsComfort  
Time TempWeatherWind HumidityBarometerVisibility
5:00 AM
Jan 30
68 °FMild.6 mph64%30.12 "HgN/A
4:00 AM68 °FMild.5 mph64%30.12 "HgN/A
3:00 AM68 °FMild.3 mph64%30.12 "HgN/A
2:00 AM66 °FMild.3 mph73%30.15 "HgN/A
1:00 AM68 °FMild.3 mph69%30.15 "HgN/A
12:00 AM70 °FMild.6 mph57%30.15 "HgN/A
11:00 PM
Jan 29
66 °FMild.3 mph78%30.15 "HgN/A
10:00 PM66 °FMild.3 mph78%30.15 "HgN/A
9:00 PM66 °FMild.6 mph78%30.15 "HgN/A
7:00 PM63 °FScattered showers. Scattered clouds.8 mph88%30.12 "HgN/A
6:00 PM64 °FMild.12 mph78%30.09 "HgN/A
5:00 PM73 °FThunderstorms. Scattered clouds.14 mph44%30.09 "Hg3 mi
4:00 PM81 °FPleasantly warm.8 mph39%30.09 "HgN/A
3:00 PM84 °FPleasantly warm.6 mph35%30.09 "HgN/A
2:00 PM84 °FScattered clouds.8 mph37%30.12 "HgN/A
1:00 PM84 °FScattered clouds.6 mph33%30.12 "HgN/A
12:00 PM82 °FPartly sunny.7 mph35%30.15 "HgN/A
11:00 AM79 °FPartly sunny.3 mph45%30.15 "HgN/A
10:00 AM77 °FPartly sunny.5 mph44%30.18 "HgN/A
9:00 AM72 °FSunny.5 mph57%30.18 "Hg10 mi
Weather by CustomWeather, © 2014

See weather overviewHow to use our weather pages